Location: Althorst
(53.6379°N, 10.7715°E)
Time: 19:46:33
(UTC+00:00)

Cosmos 2344 - Pass Details

Date: 10 December 2019
Orbit: 1256 x 2986 km, 63.3° (Epoch: 18 January)

Event Time Altitude Azimuth Distance (km) Brightness Sun altitude
Rises 17:12:35 0° 302° (WNW) 4,395 7.1 -18.7°
Reaches altitude 10° 17:15:14 10° 307° (NW) 3,529 6.4 -19.1°
Maximum altitude 17:23:49 62° 28° (NNE) 1,889 4.2 -20.3°
Enters shadow 17:30:42 27° 100° (E) 3,277 5.1 -21.3°
